Date String (YYYY-MM-DD hh:mm:ss) UTC,Instrument flags,Ambient pressure (hPa),Sample flow (lpm),Bypass flow (lpm),Sample temperature (°C),Ambient temperature (°C),ASC tube jacket temperature (°C),LED temperature (°C),Box temperature (°C),Sample RH (%),Span deviation,Mass concentration (μg/m³),Mass concentration (μg/m³),Mass concentration (μg/m³)
DateTimeUTC,F1_M11,P_M11,Q1_M11,Q2_M11,T1_M11,T2_M11,T3_M11,T4_M11,T5_M11,U1_M11,ZSPAN_M11,X2_M11,X0_M11,X1_M11
2023-01-01 20:00:00,,0817.9,4.98,0.00,24.4,23.4,00.0,33.1,26.3,14.1,-001.1,0018.59,0023.27,0018.03
2023-01-01 20:01:00,,0817.8,5.03,0.00,24.4,23.4,00.0,33.1,26.3,14.1,-001.2,0018.60,0023.16,0018.04
2023-01-01 20:02:00,,0817.9,5.01,0.00,24.5,23.4,00.0,33.1,26.3,14.0,-001.0,0018.63,0023.29,0018.07
2023-01-01 20:03:00,,0817.8,4.98,0.00,24.5,23.5,00.0,33.1,26.3,13.9,-000.8,0018.62,0023.22,0018.09
2023-01-01 20:04:00,,0817.8,4.97,0.00,24.5,23.5,00.0,33.1,26.3,14.0,-000.5,0018.66,0023.31,0018.13
2023-01-01 20:05:00,,0817.7,5.05,0.00,24.5,23.5,00.0,33.2,26.4,14.0,-000.7,0018.64,0022.81,0018.13
2023-01-01 20:06:00,,0817.8,4.99,0.00,24.5,23.5,00.0,33.2,26.4,13.9,-001.1,0018.60,0022.43,0018.13
2023-01-01 20:07:00,,0817.8,4.99,0.00,24.6,23.5,00.0,33.2,26.4,13.9,-001.1,0018.58,0022.28,0018.14
2023-01-01 20:08:00,,0817.8,4.97,0.00,24.6,23.5,00.0,33.2,26.4,13.9,-000.7,0018.56,0022.27,0018.14
2023-01-01 20:09:00,,0817.8,5.02,0.00,24.6,23.6,00.0,33.2,26.4,13.9,-000.3,0018.57,0022.22,0018.14
2023-01-01 20:10:00,,0817.8,5.03,0.00,24.6,23.6,00.0,33.3,26.5,13.9,-000.6,0018.56,0022.16,0018.16
2023-01-01 20:11:00,,0817.9,4.99,0.00,24.6,23.6,00.0,33.3,26.5,13.8,-000.7,0018.69,0022.30,0018.26
2023-01-01 20:12:00,,0817.9,4.98,0.00,24.6,23.6,00.0,33.3,26.5,13.7,-000.9,0018.83,0022.52,0018.38
2023-01-01 20:13:00,,0818.0,4.98,0.00,24.6,23.6,00.0,33.3,26.5,13.7,-001.1,0018.91,0022.59,0018.47
2023-01-01 20:14:00,,0818.0,5.07,0.00,24.7,23.6,00.0,33.3,26.5,13.7,-001.2,0019.00,0022.65,0018.58
2023-01-01 20:15:00,,0818.0,4.98,0.00,24.7,23.6,00.0,33.3,26.5,13.7,-001.5,0019.04,0022.69,0018.62
2023-01-01 20:16:00,,0818.0,5.01,0.00,24.7,23.6,00.0,33.4,26.5,13.7,-001.7,0019.10,0022.72,0018.69
2023-01-01 20:17:00,,0817.9,4.97,0.00,24.7,23.6,00.0,33.4,26.5,13.7,-001.5,0019.17,0022.82,0018.75
2023-01-01 20:18:00,,0818.0,5.01,0.00,24.7,23.6,00.0,33.4,26.5,13.7,-001.3,0019.25,0022.87,0018.84
2023-01-01 20:19:00,,0818.0,5.01,0.00,24.7,23.6,00.0,33.4,26.5,13.7,-001.5,0019.33,0022.79,0018.93
2023-01-01 20:20:00,,0818.0,5.01,0.00,24.7,23.6,00.0,33.4,26.5,13.7,-001.9,0019.44,0022.98,0019.05
2023-01-01 20:21:00,,0818.0,5.00,0.00,24.7,23.6,00.0,33.4,26.5,13.6,-001.9,0019.53,0023.08,0019.15
2023-01-01 20:22:00,,0818.0,5.00,0.00,24.7,23.6,00.0,33.4,26.5,13.6,-001.9,0019.53,0023.12,0019.16
2023-01-01 20:23:00,,0818.0,4.97,0.00,24.8,23.6,00.0,33.5,26.5,13.6,-001.8,0019.45,0022.96,0019.12
2023-01-01 20:24:00,,0818.0,4.98,0.00,24.8,23.6,00.0,33.5,26.5,13.6,-001.6,0019.37,0022.73,0019.08
2023-01-01 20:25:00,,0818.0,5.01,0.00,24.8,23.6,00.0,33.5,26.5,13.6,-001.7,0019.37,0022.76,0019.07
2023-01-01 20:26:00,,0818.0,5.02,0.00,24.8,23.6,00.0,33.5,26.5,13.5,-001.5,0019.35,0022.73,0019.04
2023-01-01 20:27:00,,0818.0,5.00,0.00,24.8,23.6,00.0,33.5,26.5,13.4,-001.5,0019.28,0022.71,0018.96
2023-01-01 20:28:00,,0818.0,5.02,0.00,24.8,23.6,00.0,33.5,26.6,13.4,-001.7,0019.14,0022.57,0018.84
2023-01-01 20:29:00,,0818.0,5.00,0.00,24.8,23.6,00.0,33.5,26.6,13.4,-001.7,0019.03,0022.45,0018.72
2023-01-01 20:30:00,,0818.0,4.96,0.00,24.8,23.7,00.0,33.5,26.6,13.5,-001.6,0018.96,0022.36,0018.67
2023-01-01 20:31:00,,0818.0,4.99,0.00,24.8,23.7,00.0,33.6,26.6,13.6,-001.4,0018.95,0022.35,0018.64
2023-01-01 20:32:00,,0818.0,4.99,0.00,24.8,23.7,00.0,33.6,26.6,13.5,-001.5,0018.90,0022.37,0018.58
2023-01-01 20:33:00,,0818.0,5.01,0.00,24.9,23.7,00.0,33.6,26.6,13.4,-001.6,0018.72,0022.15,0018.39
2023-01-01 20:34:00,,0818.0,5.00,0.00,24.9,23.7,00.0,33.6,26.6,13.4,-001.4,0018.62,0022.09,0018.27
2023-01-01 20:35:00,,0818.1,5.03,0.00,24.9,23.7,00.0,33.6,26.6,13.4,-001.6,0018.57,0022.10,0018.18
2023-01-01 20:36:00,,0818.1,4.98,0.00,24.9,23.7,00.0,33.6,26.6,13.3,-001.5,0018.35,0022.02,0017.98
2023-01-01 20:37:00,,0818.1,5.00,0.00,24.9,23.7,00.0,33.6,26.7,13.2,-001.8,0018.12,0022.29,0017.74
2023-01-01 20:38:00,,0818.1,4.95,0.00,24.9,23.7,00.0,33.6,26.6,13.2,-001.7,0017.93,0022.12,0017.54
2023-01-01 20:39:00,,0818.0,5.00,0.00,24.9,23.7,00.0,33.6,26.6,13.2,-001.8,0017.80,0022.47,0017.40
2023-01-01 20:40:00,,0818.0,5.06,0.00,24.9,23.7,00.0,33.6,26.6,13.2,-002.0,0017.62,0022.44,0017.22
2023-01-01 20:41:00,,0818.0,4.99,0.00,24.9,23.7,00.0,33.7,26.7,13.2,-002.0,0017.37,0022.20,0016.96
2023-01-01 20:42:00,,0818.0,4.97,0.00,24.9,23.7,00.0,33.7,26.7,13.2,-002.3,0017.04,0021.84,0016.66
2023-01-01 20:43:00,,0818.0,4.99,0.00,24.9,23.7,00.0,33.7,26.7,13.3,-002.1,0016.84,0021.54,0016.46
2023-01-01 20:44:00,,0818.0,4.99,0.00,25.0,23.7,00.0,33.7,26.7,13.3,-001.9,0016.81,0021.50,0016.44
2023-01-01 20:45:00,,0818.0,5.00,0.00,25.0,23.7,00.0,33.7,26.7,13.3,-001.8,0016.68,0021.33,0016.33
2023-01-01 20:46:00,,0818.1,5.08,0.00,25.0,23.7,00.0,33.7,26.7,13.3,-001.5,0016.52,0021.13,0016.20
2023-01-01 20:47:00,,0818.1,5.02,0.00,25.0,23.7,00.0,33.7,26.7,13.3,-001.4,0016.48,0020.98,0016.17
2023-01-01 20:48:00,,0818.2,4.98,0.00,25.0,23.8,00.0,33.7,26.7,13.3,-001.3,0016.53,0020.55,0016.21
2023-01-01 20:49:00,,0818.2,4.97,0.00,25.0,23.8,00.0,33.7,26.7,13.2,-001.5,0016.53,0020.52,0016.22
2023-01-01 20:50:00,,0818.2,5.02,0.00,25.0,23.8,00.0,33.7,26.7,13.2,-001.3,0016.55,0020.18,0016.24
2023-01-01 20:51:00,,0818.1,4.99,0.00,25.0,23.8,00.0,33.7,26.7,13.3,-001.1,0016.64,0020.14,0016.33
2023-01-01 20:52:00,,0818.1,5.01,0.00,25.0,23.8,00.0,33.8,26.7,13.3,-001.2,0016.74,0020.24,0016.44
2023-01-01 20:53:00,,0818.1,4.98,0.00,25.0,23.8,00.0,33.8,26.8,13.3,-001.2,0016.79,0020.39,0016.49
2023-01-01 20:54:00,,0818.1,4.99,0.00,25.0,23.8,00.0,33.8,26.8,13.3,-001.6,0016.77,0020.39,0016.48
2023-01-01 20:55:00,,0818.1,5.01,0.00,25.0,23.8,00.0,33.8,26.8,13.3,-001.9,0016.80,0020.41,0016.51
2023-01-01 20:56:00,,0818.1,5.00,0.00,25.0,23.8,00.0,33.8,26.8,13.3,-001.9,0016.89,0020.66,0016.58
2023-01-01 20:57:00,,0818.1,5.00,0.00,25.0,23.8,00.0,33.8,26.8,13.4,-002.3,0016.95,0021.50,0016.62
2023-01-01 20:58:00,,0818.0,5.00,0.00,25.1,23.8,00.0,33.8,26.8,13.3,-002.3,0016.97,0021.51,0016.65
2023-01-01 20:59:00,,0818.0,4.99,0.00,25.1,23.8,00.0,33.8,26.8,13.3,-002.2,0016.96,0021.41,0016.67
